Location: Oregon Trail
(41.1872°N, 102.0741°W)
Time: 08:29:05
(UTC+00:00)

USA 116 - Pass Details

Date: 19 November 2019
Orbit: 405 x 834 km, 97.9° (Epoch: 18 November)

Event Time Altitude Azimuth Distance (km) Brightness Sun altitude
Rises 12:31:34 0° 174° (S) 2,351 7.2 -13.1°
Reaches altitude 10° 12:33:29 10° 178° (S) 1,520 6.2 -12.7°
Maximum altitude 12:36:40 61° 259° (W) 521 3.3 -12.1°
Drops below altitude 10° 12:40:12 10° 341° (NNW) 1,681 5.9 -11.5°
Sets 12:42:25 0° 344° (NNW) 2,632 6.9 -11.1°
